Location: Rounton
(54.4000°N, 1.3500°W)
Time: 08:39:56
(UTC+00:00)

SR - All Passes

Search period start: 25 February 2024 00:00
Search period end: 06 March 2024 00:00
Orbit: 573 x 868 km, 66.7° (Epoch: 24 February)

Date Brightness Start Highest point End Pass type
(mag) Time Alt. Az. Time Alt. Az. Time Alt. Az.
25 Feb - 00:35:36 10° NW 00:40:06 31° WSW 00:44:16 10° S visible
25 Feb - 15:09:05 10° S 15:14:33 43° ESE 15:19:50 10° NE daylight
25 Feb - 16:50:46 10° WSW 16:56:29 56° NW 17:01:55 10° NE daylight
25 Feb - 18:34:46 10° WNW 18:39:30 26° NNW 18:44:00 10° NE visible
25 Feb - 20:18:45 10° NW 20:23:06 23° N 20:27:12 10° ENE visible
25 Feb - 22:01:18 10° NW 22:06:22 41° NNE 22:11:02 10° ESE visible
25 Feb - 23:43:26 10° NW 23:48:32 55° WSW 23:53:10 10° SSE visible
26 Feb - 01:28:24 10° W 01:29:11 10° W 01:30:00 10° WSW night (unlit)
26 Feb - 14:18:17 10° SSE 14:22:59 26° ESE 14:27:33 10° ENE daylight
26 Feb - 15:58:38 10° SW 16:04:29 84° NW 16:10:04 10° NE daylight
26 Feb - 17:42:01 10° W 17:47:07 32° NNW 17:51:59 10° NE daylight
26 Feb - 19:26:18 10° NW 19:30:36 22° N 19:34:40 10° NE visible
26 Feb - 21:09:20 10° NW 21:14:07 30° NNE 21:18:32 10° E visible
26 Feb - 22:51:27 10° NW 22:56:44 87° NE 23:01:33 10° SE visible
27 Feb - 00:34:19 10° WNW 00:37:57 20° WSW 00:41:23 10° SSW visible
27 Feb - 13:28:32 10° SE 13:31:35 15° ESE 13:34:37 10° ENE daylight
27 Feb - 15:06:54 10° SSW 15:12:37 62° SE 15:18:08 10° NE daylight
27 Feb - 16:49:23 10° WSW 16:54:52 43° NW 17:00:05 10° NE daylight
27 Feb - 18:33:38 10° WNW 18:38:07 23° N 18:42:21 10° NE visible
27 Feb - 20:17:15 10° NW 20:21:44 25° NNE 20:25:54 10° ENE visible
27 Feb - 21:59:32 10° NW 22:04:45 55° NE 22:09:30 10° ESE visible
27 Feb - 23:41:50 10° NW 23:46:31 36° WSW 23:50:48 10° S visible
28 Feb - 14:15:38 10° S 14:20:56 37° ESE 14:26:04 10° NE daylight
28 Feb - 15:57:00 10° WSW 16:02:45 62° NW 16:08:14 10° NE daylight
28 Feb - 17:40:52 10° WNW 17:45:40 27° NNW 17:50:14 10° NE daylight
28 Feb - 19:24:58 10° NW 19:29:15 22° N 19:33:17 10° ENE visible
28 Feb - 21:07:37 10° NW 21:12:36 37° NNE 21:17:10 10° E visible
28 Feb - 22:49:44 10° NW 22:54:52 64° SW 22:59:33 10° SSE visible
29 Feb - 00:33:40 10° W 00:35:41 12° WSW 00:37:39 10° SW visible
29 Feb - 13:25:03 10° SSE 13:29:25 22° ESE 13:33:40 10° ENE daylight
29 Feb - 15:04:57 10° SW 15:10:47 87° SE 15:16:21 10° NE daylight
29 Feb - 16:48:08 10° W 16:53:20 34° NNW 16:58:15 10° NE daylight
29 Feb - 18:32:27 10° NW 18:36:45 22° N 18:40:49 10° NE visible
29 Feb - 20:15:38 10° NW 20:20:17 28° NNE 20:24:37 10° E visible
29 Feb - 21:57:46 10° NW 22:03:02 77° NE 22:07:48 10° SE visible
29 Feb - 23:40:25 10° WNW 23:44:23 23° WSW 23:48:05 10° SSW visible
01 Mar - 12:35:47 10° SE 12:38:04 12° ESE 12:40:19 10° E daylight
01 Mar - 14:13:19 10° SSW 14:18:58 54° ESE 14:24:24 10° NE daylight
01 Mar - 15:55:33 10° WSW 16:01:06 47° NW 16:06:22 10° NE daylight
01 Mar - 17:39:45 10° WNW 17:44:16 24° NNW 17:48:33 10° NE daylight
01 Mar - 19:23:30 10° NW 19:27:52 24° NNE 19:31:58 10° ENE visible
01 Mar - 21:05:51 10° NW 21:11:00 49° NE 21:15:41 10° ESE visible
01 Mar - 22:48:04 10° NW 22:52:53 42° WSW 22:57:17 10° S visible
02 Mar - 13:22:14 10° S 13:27:19 33° ESE 13:32:15 10° NE daylight
02 Mar - 15:03:14 10° SW 15:09:02 69° NW 15:14:31 10° NE daylight
02 Mar - 16:46:58 10° W 16:51:51 28° NNW 16:56:28 10° NE daylight
02 Mar - 18:31:09 10° NW 18:35:23 22° N 18:39:22 10° NE visible
02 Mar - 20:13:55 10° NW 20:18:47 34° NNE 20:23:16 10° E visible
02 Mar - 21:56:01 10° NW 22:01:11 74° SW 22:05:52 10° SSE visible
02 Mar - 23:39:26 10° WNW 23:42:08 15° WSW 23:44:43 10° SW visible
03 Mar - 12:31:52 10° SSE 12:35:50 19° ESE 12:39:43 10° ENE daylight
03 Mar - 14:11:17 10° SSW 14:17:06 78° SE 14:22:37 10° NE daylight
03 Mar - 15:54:14 10° W 15:59:31 37° NNW 16:04:31 10° NE daylight
03 Mar - 17:38:34 10° WNW 17:42:52 22° N 17:46:57 10° NE daylight
03 Mar - 19:21:54 10° NW 19:26:26 27° NNE 19:30:40 10° ENE visible
03 Mar - 21:04:04 10° NW 21:09:17 68° NE 21:14:02 10° SE visible
03 Mar - 22:46:34 10° WNW 22:50:46 27° WSW 22:54:41 10° S visible
04 Mar - 11:43:45 10° ESE 11:44:32 10° ESE 11:45:18 10° E daylight
04 Mar - 13:19:46 10° SSW 13:25:19 47° ESE 13:30:37 10° NE daylight
04 Mar - 15:01:42 10° WSW 15:07:20 51° NW 15:12:39 10° NE daylight
04 Mar - 16:45:49 10° WNW 16:50:24 25° NNW 16:54:43 10° NE daylight
04 Mar - 18:29:43 10° NW 18:33:59 23° N 18:38:01 10° ENE visible
04 Mar - 20:12:09 10° NW 20:17:11 44° NE 20:21:48 10° ESE visible
04 Mar - 21:54:19 10° NW 21:59:13 48° WSW 22:03:42 10° SSE visible
05 Mar - 12:28:50 10° S 12:33:42 28° ESE 12:38:23 10° ENE daylight
05 Mar - 14:09:29 10° SW 14:15:17 77° NW 14:20:47 10° NE daylight
05 Mar - 15:53:02 10° W 15:58:00 30° NNW 16:02:42 10° NE daylight
05 Mar - 17:37:18 10° NW 17:41:30 22° N 17:45:27 10° NE daylight
05 Mar - 19:20:12 10° NW 19:24:56 32° NNE 19:29:19 10° E visible
05 Mar - 21:02:16 10° NW 21:07:28 85° SW 21:12:10 10° SE visible
05 Mar - 22:45:22 10° WNW 22:48:33 17° WSW 22:51:35 10° SSW visible
